Weather History for Crisp Cnty-Cordele AP, Cordel, GA

Change the Weather History Date:

Saturday, January 4, 2014

  Actual Average (KABY) Record (KABY)
Temperature  
Mean Temperature 41 °F 49 °F  
Max Temperature 52 °F 60 °F 81 °F (1939)
Min Temperature 30 °F 38 °F 16 °F (1979)
Degree Days  
Heating Degree Days 24 16  
Month to date heating degree days 64  
Since 1 July heating degree days 777  
Cooling Degree Days 0 0  
Month to date cooling degree days 0  
Year to date cooling degree days 0  
Moisture  
Dew Point 31 °F    
Average Humidity 65    
Maximum Humidity 83    
Minimum Humidity 51    
Precipitation  
Precipitation 0.00 in - 0.74 in (2015)
Sea Level Pressure  
Sea Level Pressure 30.32 in    
Wind  
Wind Speed 5 mph (ENE)    
Max Wind Speed 10 mph    
Max Gust Speed -    
Visibility 10 miles    
Events      
T = Trace of Precipitation, MM = Missing Value Source: NWS Daily Summary

Daily Weather History Graph

Daily Weather History Graph

Search for Another Location

Airport:

Trip Planner

Search our weather history database for the weather conditions in past years. The results will help you decide how hot, cold, wet, or windy it might be!

Date:

Astronomy

Jan. 04, 2014 Rise Set
Actual Time 7:36 AM EST 5:44 PM EST
Civil Twilight 7:09 AM EST 6:11 PM EST
Nautical Twilight 6:38 AM EST 6:41 PM EST
Astronomical Twilight 6:09 AM EST 7:11 PM EST
Moon 9:55 AM EST (1/4) 9:46 PM EST (1/4)
Length of Visible Light 11h 01m
Length of Day
10h 08m
Waxing Crescent, 15% of the Moon is Illuminated
Jan 4
Waxing Crescent
Jan 7
First Quarter
Jan 15
Full
Jan 24
Last Quarter
Jan 30
New

Hourly Weather History & Observations

Time (EST) Temp. Windchill Dew Point Humidity Pressure Visibility Wind Dir Wind Speed Gust Speed Precip Events Conditions
12:15 AM 31.1 °F - 25.2 °F 79% 30.41 in 10.0 mi Calm Calm - N/A   Clear
12:35 AM 31.1 °F - 25.5 °F 80% 30.41 in 10.0 mi Calm Calm - N/A   Clear
12:55 AM 30.7 °F 27.3 °F 26.2 °F 83% 30.41 in 10.0 mi NE 3.5 mph - N/A   Clear
1:15 AM 30.2 °F 25.4 °F 25.3 °F 82% 30.40 in 10.0 mi NE 4.6 mph - N/A   Clear
1:35 AM 30.9 °F 26.2 °F 24.8 °F 78% 30.40 in 10.0 mi NE 4.6 mph - N/A   Clear
1:55 AM 30.9 °F 25.2 °F 23.9 °F 75% 30.39 in 10.0 mi NE 5.8 mph - N/A   Clear
2:15 AM 31.1 °F 25.4 °F 22.8 °F 71% 30.39 in 10.0 mi ENE 5.8 mph - N/A   Clear
2:35 AM 31.5 °F 28.1 °F 22.1 °F 68% 30.39 in 10.0 mi ENE 3.5 mph - N/A   Clear
2:55 AM 31.1 °F 26.4 °F 22.6 °F 71% 30.38 in 10.0 mi ENE 4.6 mph - N/A   Clear
3:15 AM 30.9 °F 26.2 °F 22.6 °F 71% 30.38 in 10.0 mi ENE 4.6 mph - N/A   Clear
3:35 AM 31.8 °F 27.3 °F 23.2 °F 70% 30.37 in 10.0 mi East 4.6 mph - N/A   Mostly Cloudy
3:55 AM 32.4 °F 27.9 °F 21.9 °F 65% 30.37 in 10.0 mi ENE 4.6 mph - N/A   Overcast
4:15 AM 32.5 °F 28.1 °F 22.5 °F 66% 30.36 in 10.0 mi ENE 4.6 mph - N/A   Overcast
4:35 AM 32.5 °F 27.1 °F 22.5 °F 66% 30.36 in 10.0 mi ENE 5.8 mph - N/A   Mostly Cloudy
4:55 AM 32.2 °F 28.9 °F 21.9 °F 66% 30.36 in 10.0 mi ENE 3.5 mph - N/A   Scattered Clouds
5:15 AM 32.5 °F 28.1 °F 21.0 °F 63% 30.36 in 10.0 mi ENE 4.6 mph - N/A   Clear
5:35 AM 32.4 °F 26.0 °F 21.2 °F 63% 30.36 in 10.0 mi ENE 6.9 mph - N/A   Clear
5:55 AM 33.8 °F 27.7 °F 20.8 °F 59% 30.36 in 10.0 mi ENE 6.9 mph - N/A   Mostly Cloudy
6:15 AM 34.5 °F 29.4 °F 21.7 °F 60% 30.36 in 10.0 mi ENE 5.8 mph - N/A   Overcast
6:35 AM 35.1 °F 30.1 °F 21.6 °F 58% 30.36 in 10.0 mi NE 5.8 mph - N/A   Overcast
6:55 AM 35.6 °F 32.8 °F 21.4 °F 56% 30.36 in 10.0 mi ENE 3.5 mph - N/A   Overcast
7:15 AM 36.0 °F 32.1 °F 21.6 °F 56% 30.37 in 10.0 mi ENE 4.6 mph - N/A   Overcast
7:35 AM 36.1 °F 32.3 °F 22.1 °F 57% 30.38 in 10.0 mi NE 4.6 mph - N/A   Overcast
7:55 AM 36.5 °F 31.8 °F 22.5 °F 57% 30.39 in 10.0 mi NE 5.8 mph - N/A   Overcast
8:15 AM 36.5 °F 31.0 °F 22.1 °F 56% 30.39 in 10.0 mi ENE 6.9 mph - N/A   Overcast
8:35 AM 37.0 °F 31.0 °F 21.7 °F 54% 30.38 in 10.0 mi ENE 8.1 mph - N/A   Overcast
8:55 AM 37.9 °F 33.5 °F 21.9 °F 53% 30.38 in 10.0 mi ENE 5.8 mph - N/A   Overcast
9:15 AM 38.8 °F 33.2 °F 22.1 °F 51% 30.39 in 10.0 mi East 8.1 mph - N/A   Overcast
9:35 AM 39.6 °F 35.4 °F 22.8 °F 51% 30.39 in 10.0 mi ENE 5.8 mph - N/A   Overcast
9:55 AM 40.8 °F 35.6 °F 24.4 °F 52% 30.40 in 10.0 mi East 8.1 mph - N/A   Overcast
10:15 AM 41.7 °F 36.1 °F 25.5 °F 53% 30.40 in 10.0 mi ENE 9.2 mph - N/A   Overcast
10:35 AM 42.8 °F 37.0 °F 26.8 °F 53% 30.40 in 10.0 mi East 10.4 mph - N/A   Overcast
10:55 AM 44.1 °F 40.1 °F 28.4 °F 54% 30.39 in 10.0 mi East 6.9 mph - N/A   Overcast
11:15 AM 44.8 °F 41.6 °F 29.1 °F 54% 30.38 in 10.0 mi East 5.8 mph - N/A   Overcast
11:35 AM 45.7 °F 42.0 °F 30.9 °F 56% 30.37 in 10.0 mi ENE 6.9 mph - N/A   Overcast
11:55 AM 46.4 °F 42.4 °F 32.0 °F 57% 30.36 in 10.0 mi East 8.1 mph - N/A   Overcast
12:15 PM 47.1 °F - 32.2 °F 56% 30.35 in 10.0 mi ENE 6.9 mph - N/A   Overcast
12:35 PM 48.7 °F - 33.8 °F 56% 30.32 in 10.0 mi ENE 9.2 mph - N/A   Overcast
12:55 PM 48.4 °F - 34.0 °F 58% 30.31 in 10.0 mi NE 8.1 mph - N/A   Overcast
1:15 PM 49.3 °F - 34.5 °F 57% 30.30 in 10.0 mi East 5.8 mph - N/A   Overcast
1:35 PM 49.1 °F - 35.2 °F 59% 30.29 in 10.0 mi ENE 8.1 mph - N/A   Overcast
1:55 PM 49.8 °F - 35.8 °F 59% 30.29 in 10.0 mi NE 4.6 mph - N/A   Overcast
2:15 PM 50.9 °F - 36.5 °F 58% 30.27 in 10.0 mi East 4.6 mph - N/A   Overcast
2:35 PM 50.9 °F - 36.9 °F 59% 30.27 in 10.0 mi ENE 9.2 mph - N/A   Overcast
2:55 PM 52.2 °F - 37.9 °F 58% 30.27 in 10.0 mi East 5.8 mph - N/A   Mostly Cloudy
3:15 PM 52.5 °F - 38.1 °F 58% 30.26 in 10.0 mi ENE 9.2 mph - N/A   Overcast
3:35 PM 52.0 °F - 38.3 °F 60% 30.26 in 10.0 mi East 8.1 mph - N/A   Mostly Cloudy
3:55 PM 51.6 °F - 38.5 °F 61% 30.26 in 10.0 mi NE 8.1 mph - N/A   Mostly Cloudy
4:15 PM 51.8 °F - 38.1 °F 60% 30.26 in 10.0 mi ENE 6.9 mph - N/A   Overcast
4:35 PM 52.0 °F - 38.7 °F 60% 30.27 in 10.0 mi East 6.9 mph - N/A   Overcast
4:55 PM 50.9 °F - 38.5 °F 62% 30.25 in 10.0 mi ENE 8.1 mph - N/A   Scattered Clouds
5:15 PM 50.2 °F - 38.5 °F 64% 30.25 in 10.0 mi ENE 8.1 mph - N/A   Clear
5:35 PM 49.3 °F - 38.3 °F 66% 30.24 in 10.0 mi ENE 5.8 mph - N/A   Clear
5:55 PM 48.6 °F - 38.3 °F 68% 30.25 in 10.0 mi ENE 5.8 mph - N/A   Clear
6:15 PM 47.8 °F - 38.5 °F 70% 30.26 in 10.0 mi ENE 3.5 mph - N/A   Scattered Clouds
6:35 PM 47.8 °F - 38.7 °F 70% 30.26 in 10.0 mi NE 4.6 mph - N/A   Scattered Clouds
6:55 PM 47.3 °F - 38.7 °F 72% 30.26 in 10.0 mi NE 3.5 mph - N/A   Clear
7:15 PM 46.4 °F 44.3 °F 38.7 °F 74% 30.26 in 10.0 mi NE 4.6 mph - N/A   Clear
7:35 PM 46.2 °F 42.7 °F 38.7 °F 75% 30.26 in 10.0 mi ENE 6.9 mph - N/A   Clear
7:55 PM 46.0 °F 43.1 °F 38.5 °F 75% 30.26 in 10.0 mi ENE 5.8 mph - N/A   Scattered Clouds
8:15 PM 45.5 °F 41.8 °F 38.1 °F 75% 30.26 in 10.0 mi ENE 6.9 mph - N/A   Mostly Cloudy
8:35 PM 45.3 °F 41.6 °F 37.6 °F 74% 30.25 in 10.0 mi ENE 6.9 mph - N/A   Scattered Clouds
8:55 PM 45.0 °F 41.8 °F 37.4 °F 75% 30.24 in 10.0 mi ENE 5.8 mph - N/A   Scattered Clouds
9:15 PM 45.5 °F 43.2 °F 37.0 °F 72% 30.24 in 10.0 mi ENE 4.6 mph - N/A   Scattered Clouds
9:35 PM 45.1 °F 42.0 °F 37.4 °F 74% 30.24 in 10.0 mi ENE 5.8 mph - N/A   Mostly Cloudy
9:55 PM 45.7 °F 42.0 °F 37.4 °F 73% 30.24 in 10.0 mi ENE 6.9 mph - N/A   Overcast
10:15 PM 46.0 °F 43.1 °F 37.6 °F 72% 30.22 in 10.0 mi ENE 5.8 mph - N/A   Overcast
10:35 PM 46.4 °F 42.9 °F 37.8 °F 72% 30.21 in 10.0 mi ENE 6.9 mph - N/A   Overcast
10:55 PM 46.8 °F - 37.8 °F 71% 30.21 in 10.0 mi NE 5.8 mph - N/A   Overcast
11:15 PM 46.8 °F - 37.8 °F 71% 30.21 in 10.0 mi ENE 5.8 mph - N/A   Overcast
11:35 PM 46.8 °F - 37.6 °F 70% 30.19 in 10.0 mi ENE 4.6 mph - N/A   Overcast
11:55 PM 46.8 °F - 37.6 °F 70% 30.17 in 10.0 mi ENE 5.8 mph - N/A   Overcast